TimeEST,TemperatureF,Dew PointF,Humidity,Sea Level PressureIn,VisibilityMPH,Wind Direction,Wind SpeedMPH,Gust SpeedMPH,PrecipitationIn,Events,Conditions,WindDirDegrees,DateUTC
12:54 AM,37.9,23.0,55,30.04,10.0,NW,6.9,-,N/A,,Clear,320,2012-12-28 05:54:00
1:54 AM,36.0,23.0,59,30.06,10.0,NW,4.6,-,N/A,,Clear,310,2012-12-28 06:54:00
2:54 AM,35.1,23.0,61,30.07,10.0,NW,4.6,-,N/A,,Clear,320,2012-12-28 07:54:00
3:54 AM,36.0,23.0,59,30.06,10.0,NNW,6.9,-,N/A,,Clear,330,2012-12-28 08:54:00
4:54 AM,35.1,23.0,61,30.08,10.0,WNW,3.5,-,N/A,,Clear,290,2012-12-28 09:54:00
5:54 AM,33.8,23.0,65,30.10,10.0,WNW,3.5,-,N/A,,Clear,300,2012-12-28 10:54:00
6:54 AM,32.0,23.0,69,30.12,10.0,WNW,4.6,-,N/A,,Clear,300,2012-12-28 11:54:00
7:54 AM,35.1,24.1,64,30.13,10.0,NW,6.9,-,N/A,,Clear,310,2012-12-28 12:54:00
8:54 AM,37.9,25.0,60,30.16,10.0,NNW,5.8,-,N/A,,Clear,330,2012-12-28 13:54:00
9:54 AM,42.1,27.0,55,30.17,10.0,NNE,6.9,-,N/A,,Clear,20,2012-12-28 14:54:00
10:54 AM,44.1,27.0,51,30.17,10.0,Variable,5.8,-,N/A,,Clear,0,2012-12-28 15:54:00
11:54 AM,43.0,26.1,51,30.15,10.0,WSW,3.5,-,N/A,,Clear,240,2012-12-28 16:54:00
12:54 PM,45.0,27.0,49,30.12,10.0,Variable,3.5,-,N/A,,Clear,0,2012-12-28 17:54:00
1:54 PM,46.0,28.0,50,30.10,10.0,SW,8.1,-,N/A,,Clear,230,2012-12-28 18:54:00
2:54 PM,45.0,27.0,49,30.10,10.0,West,4.6,-,N/A,,Clear,260,2012-12-28 19:54:00
3:54 PM,45.0,27.0,49,30.11,10.0,WNW,4.6,-,N/A,,Partly Cloudy,290,2012-12-28 20:54:00
4:54 PM,44.1,27.0,51,30.08,10.0,Calm,Calm,-,N/A,,Clear,0,2012-12-28 21:54:00
5:54 PM,39.9,30.0,68,30.09,10.0,East,3.5,-,N/A,,Partly Cloudy,90,2012-12-28 22:54:00
6:54 PM,39.0,30.0,70,30.07,10.0,ESE,5.8,-,N/A,,Clear,110,2012-12-28 23:54:00
7:54 PM,39.0,28.9,67,30.09,10.0,Calm,Calm,-,N/A,,Clear,0,2012-12-29 00:54:00
8:54 PM,37.9,30.0,73,30.11,10.0,Calm,Calm,-,N/A,,Clear,0,2012-12-29 01:54:00
9:54 PM,37.0,30.0,76,30.11,10.0,Calm,Calm,-,N/A,,Clear,0,2012-12-29 02:54:00
10:54 PM,37.0,30.9,79,30.08,8.0,Calm,Calm,-,N/A,,Clear,0,2012-12-29 03:54:00
11:54 PM,37.9,30.9,76,30.06,9.0,Calm,Calm,-,N/A,,Clear,0,2012-12-29 04:54:00